sat.trackr.live / text

‹ back to catalog

BEIDOU-3 M3 (C21)

NORAD 43208 · 2018-018B

PAYLOAD ACTIVE UNKNOWN

§ Identity

Operator
Country
PRC
Launch date
2018-02-12
Launch site
XICLF
Launch vehicle
Mass (kg)
RCS (m²)

Purposes: nav

External: N2YO · Heavens-Above · Gunter

§ Orbital elements

Epoch: 2026-09-19T18:31:39.643104Z

Period
773.23 min
Inclination
56.7379°
Eccentricity
0.0005301
Mean motion
1.86231229 rev/d
Perigee alt
21,513.2 km
Apogee alt
21,542.8 km
Semi-major
27,906.2 km
B*
0.0000e+0
RAAN
60.0386°
Arg perigee
344.8593°
Mean anomaly
15.1456°
Rev number
5,850

§ Raw data

BEIDOU-3 M3 (C21)1 43208U 18018B   26262.77198661 -.00000009  00000+0  00000+0 0  99962 43208  56.7379  60.0386 0005301 344.8593  15.1456  1.86231229 58508

JSON: /api/v1/satellites/43208 · /tle

For live sub-satellite position, see the globe view (requires WebGL).

§ Visibility from observer

Set your observer location to see the next 7 days of passes ≥ 10°. The values pass through the URL so the page stays shareable.

No JS? Fill the form by hand. The geolocation button needs JavaScript.